Jackpot

Texas Poker Multi Jackpot System

Kini Telah hadir Jackpot SUPER ROYAL FLUSH

Kini Telah hadir Jackpot 2000 (khusus table VIP keatas).

Ikutilah global jackpot yang tersedia di system kami, dengan system jackpot terbaru dan pertama di indonesia, anda dapat membeli jackpot dengan harga 100 rupiah saja dan menangkan hadiahnya hingga puluhan juta rupiah.

Jackpot bukanlah suatu keharusan untuk dibeli, namun kami memberikan suatu fitur tambahan untuk member tercinta dari www.indowin99.com.

Terdapat tiga pilihan harga jackpot yang bisa anda beli yaitu :100,500,1000 dan 2000(khusus table VIP Keatas) rupiah.

Hadiah dari Multi jackpot system www.indowin99.com

  1. full house x 10 harga jackpot yang anda beli.
      (contoh:anda membeli 1000 maka:1000 X10 = 10.000)
  2. four of kind x 250 harga jackpot yang anda beli
      (contoh:anda membeli 1000 maka:1000 X250 = 250.000)
  3. Straight flush x 1200
      (contoh:anda membeli 1000 maka:1000 X1200 = 1.200.000)
  4. Royal flush x 10000 harga jackpot yang anda beli
      (contoh:anda membeli 1000 maka:1000 X10000 = 10.000.000)
  5. SUPER ROYAL FLUSH x 30000 harga jackpot yang anda beli
      (contoh:anda membeli 1000 maka:1000 X30000 = 30.000.000)

Kondisi kartu

  1. full house adalah kondisi kartu dimana kartu anda dan kartu tengah dengan total 7 kartu bisa mendapatkan nilai 5 kartu dengan kombinasi 1 tris(three of kind) dan 1 pair, contoh 3 kartu 10 dan 2 kartu 5
  2. Four of kind adalah kondisi kartu dimana kartu anda dan kartu tengah dengan total 7 kartu bisa mendapatkan nilai 5 kartu dengan kombinasi 4 kartu yang sama jumlah dan 1 kartu apapun juga contoh anda mendapatkan 4 buah kartu angka 3 dan 1 kartu apapun.
  3. Staright flush adalah kondisi kartu dimana kartu anda dan kartu tengah dengan total 7 kartu bisa mendapatkan nilai 5 kartu dengan kombinasi seri / staright dengan kembang yang sama contoh : urutan kartu dari angka 5, 6, 7, 8 , 9 10 dengan kembang yg sama misalnya as hati
  4. Royal flush adalah kondisi kartu dimana kartu anda dan kartu tengah dengan total 7 kartu bisa mendapatkan nilai 5 kartu dengan kombinasi seri / staright dengan kembang yang sama tetapi kartu tersebut haruslah dimulai dari 10. contoh 10, Queen, Jack, King dan aces dengan kembang yang sama
  5. Super Royal flush adalah kondisi kartu dimana Kedua kartu anda digabung dengan 3 kartu pertama meja haruslah royal flush. contoh kartu anda 10,Queen kembang sama dan 3 kartu pertama meja adalah Jack, King dan aces dengan kembang yang sama

Demikian adalah penjelasan dari Multi Jackpot www.indowin99.com terima kasih dan selamat bermain salam hoki dari kami

Texas Poker Jackpot Winner

TOP SUPER ROYAL FLUSH
No.TanggalNamaPriceWin
126/02 00:25AAAABIKA67Super Royal flush6,000,000
226/02 00:16SPG_YAKULSuper Royal flush3,000,000
325/02 23:18LOKHAJAYA9Super Royal flush6,000,000
425/02 23:04JANTUK004Super Royal flush30,000,000
525/02 20:47GAP1418Super Royal flush3,000,000
TOP ROYAL FLUSH
No.TanggalNamaPriceWin
126/02 02:34JENGGOWDRoyal flush2,000,000
226/02 02:06AZKIYA28Royal flush2,000,000
326/02 02:02H3NC3T77Royal flush2,000,000
426/02 01:59CHOU10Royal flush2,000,000
526/02 01:29JPRRRoyal flush5,000,000
TOP STRAIGHT FLUSH
No.TanggalNamaPriceWin
126/02 02:43S9XCSU4KRBStraight Flush120,000
226/02 02:43P4Y666Straight Flush60,000
326/02 02:38UNIVEGASStraight Flush120,000
426/02 02:38JAFRAK12Straight Flush120,000
526/02 02:38JPR0Y4L10JStraight Flush60,000
LATEST JACKPOT
No.TanggalNamaPriceWin
126/02 02:44AADDSSFull House2,000
226/02 02:44OKAY182Full House10,000
326/02 02:44AAKHADOR75Full House2,000
426/02 02:44STEMPELFull House20,000
526/02 02:44PARLOMBS88Full House10,000
626/02 02:44SOWANG99Full House5,000
726/02 02:44ISMAN22Four Of A Kind12,500
826/02 02:44MHA75JSY62Full House2,000
926/02 02:44KATRO000Full House2,000
1026/02 02:44NASRULRSFull House10,000
1126/02 02:44PLAKSUT3Four Of A Kind250,000
1226/02 02:44DD751E7CFull House5,000
1326/02 02:44KANCITAN12Full House5,000
1426/02 02:44TAOKUDIPA9Full House10,000
1526/02 02:44JONIJOA123Full House5,000
1626/02 02:44ASAN30Four Of A Kind25,000
1726/02 02:44POTATODIDOFull House5,000
1826/02 02:44DYAZT69Full House20,000
1926/02 02:44BB_HOO69Four Of A Kind25,000
2026/02 02:44NAIM505Full House1,000
2126/02 02:44FREAKO_45Full House2,000
2226/02 02:44L4B0LD86Full House10,000
2326/02 02:44HOAXS80Full House5,000
2426/02 02:44LK4DKOBENG23Full House10,000
2526/02 02:44B96F11EDFull House10,000
2626/02 02:44BATMAN9969Full House2,000
2726/02 02:44FBLHZRDDF6Full House1,000
2826/02 02:44AADDAXXN73Full House5,000
2926/02 02:44PRRUSA88Full House1,000
3026/02 02:44RIHANDIIFull House2,000
3126/02 02:44KYCEL77Full House5,000
3226/02 02:44POKA_NAFull House5,000
3326/02 02:44F4C0819BFull House1,000
3426/02 02:44PKRCCFull House2,000
3526/02 02:44APSAMFull House20,000
3626/02 02:44HENDRIK_88Full House500
3726/02 02:44NIN9N0N8Full House2,000
3826/02 02:44GUSZT345Full House1,000
3926/02 02:44BA2O12Full House2,000
4026/02 02:44M3100Full House5,000
4126/02 02:44A27EDWIN479Full House5,000
4226/02 02:43MAMIGIBRANFull House1,000
4326/02 02:43NIKI_89Full House2,000
4426/02 02:43BONCITFull House2,000
4526/02 02:43JURAGANKALFull House1,000
4626/02 02:43ALVINO414Full House5,000
4726/02 02:43B7E47783Full House1,000
4826/02 02:43B6D6C5DFFour Of A Kind125,000
4926/02 02:433KO44Full House500
5026/02 02:43WINLEE86Full House2,000

Domino Multi Jackpot System

Ikutilah global jackpot yang tersedia di system kami, dengan system jackpot terbaru dan pertama di indonesia, anda dapat membeli jackpot dengan harga 100 rupiah saja dan menangkan hadiahnya hingga puluhan juta rupiah.

Jackpot bukanlah suatu keharusan untuk dibeli, namun kami memberikan suatu fitur tambahan untuk member tercinta dari www.indowin99.com.

Terdapat tiga pilihan harga jackpot yang bisa anda beli yaitu :100,500 dan 1000 rupiah.

Hadiah dari Multi jackpot system www.indowin99.com

  1. Murni Kecil x 50 harga jackpot yang anda beli.
      (contoh:anda membeli 1000 maka:1000 X 50 = 50.000)
  2. Murni Besar x 50 harga jackpot yang anda beli
      (contoh:anda membeli 1000 maka:1000 X 50 = 50.000)
  3. BALAK x 100 harga jackpot yang anda beli
      (contoh:anda membeli 1000 maka:1000 X 100 = 100.000)
  4. ENAM DEWA x 6666 harga jackpot yang anda beli
      (contoh:anda membeli 1000 maka:1000 X 6666 = 6.666.000)

Demikian adalah penjelasan dari Multi Jackpot www.indowin99.com terima kasih dan selamat bermain salam hoki dari kami

Domino Jackpot Winner

TOP ENAM DEWA
No.TanggalNamaPriceWin
126/02 00:37TINTAMAS88murni enam666,600
226/02 00:22INDRA2000murni enam3,333,000
326/02 00:18AB1719SKmurni enam6,666,000
425/02 22:30MACANKIPmurni enam666,600
525/02 21:55ZW75FS7ZB6murni enam3,333,000
TOP BALAK
No.TanggalNamaPriceWin
126/02 02:44DE8C54F2balak10,000
226/02 02:44JNCK19balak50,000
326/02 02:44RKAAbalak10,000
426/02 02:40RYYADIEbalak10,000
526/02 02:39BKT05balak100,000
LATEST JACKPOT
No.TanggalNamaPriceWin
126/02 02:44DE8C54F2balak10,000
226/02 02:44JNCK19balak50,000
326/02 02:44ROBERT9999murni besar5,000
426/02 02:44JAMBICYTY9murni besar25,000
526/02 02:44RKAAbalak10,000
626/02 02:42ARIEARImurni besar5,000
726/02 02:42GUUH99murni besar50,000
826/02 02:42SHIOMI85murni kecil50,000
926/02 02:41BP882526murni kecil50,000
1026/02 02:40RYYADIEbalak10,000
1126/02 02:39FARIEZ26murni kecil5,000
1226/02 02:39C1E8DAD0murni besar5,000
1326/02 02:39QNET876murni kecil50,000
1426/02 02:39BKT05balak100,000
1526/02 02:39LUGLO1811murni kecil5,000
1626/02 02:38YOYO022murni besar25,000
1726/02 02:38MONSTER1murni besar50,000
1826/02 02:38UJANGJAYmurni besar50,000
1926/02 02:38XH9OMTDPSGmurni kecil50,000
2026/02 02:37PERIKmurni kecil25,000
2126/02 02:37BEGO1986lucky992,500
2226/02 02:36F4TOYAmurni besar5,000
2326/02 02:36ABUTFUCKbalak10,000
2426/02 02:36B02AE719murni besar5,000
2526/02 02:36MAGICWOMANbalak10,000
2626/02 02:35MASWO88balak100,000
2726/02 02:34ROGGER_VILmurni besar25,000
2826/02 02:34GACIK1104murni besar50,000
2926/02 02:34A3306EFDmurni besar5,000
3026/02 02:33HDRA123murni besar50,000
3126/02 02:33SECRET26murni besar25,000
3226/02 02:32RHILY01murni kecil50,000
3326/02 02:31JMO13XJGQCmurni kecil50,000
3426/02 02:30C56A3D24murni kecil25,000
3526/02 02:30THOM420murni kecil50,000
3626/02 02:30ENNDYmurni kecil5,000
3726/02 02:29WIDEX123murni kecil50,000
3826/02 02:29HNDRXmurni kecil50,000
3926/02 02:29DRIVER03murni kecil25,000
4026/02 02:28HOKY747murni kecil50,000
4126/02 02:26ABDULLAHCCmurni besar25,000
4226/02 02:26BARRI955murni besar50,000
4326/02 02:26BELGI_LOmurni kecil25,000
4426/02 02:25JMO13XJGQCmurni besar50,000
4526/02 02:24MUDUK94murni kecil50,000
4626/02 02:23RENA159murni kecil5,000
4726/02 02:23KIU2BAEmurni kecil25,000
4826/02 02:22IWIKNSR20murni kecil5,000
4926/02 02:22MASWO88murni kecil25,000
5026/02 02:22GPANIK99balak100,000

Ceme Multi Jackpot System

Jackpot dilihat dari gabungan kartu pemain dengan kartu bandar. Bandar harus membeli jackpot sebanyak jumlah player yang sedang duduk. Sebagai contoh bila terdapat 3 pemain duduk bermain, dan bandar memutuskan untuk membeli jackpot Rp 1.000, maka pada periode tersebut bandar akan membeli jackpot sebanyak 3xRp1.000 = Rp3.000.

Jackpot bukanlah suatu keharusan untuk dibeli, namun kami memberikan suatu fitur tambahan untuk member tercinta dari www.indowin99.com.

Terdapat tiga pilihan harga jackpot yang bisa anda beli yaitu :100,500 dan 1000 rupiah.

Hadiah dari Multi jackpot system www.indowin99.com

  1. Murni Kecil x 50 harga jackpot yang anda beli.
      (contoh:anda membeli 1000 maka:1000 X 50 = 50.000)
  2. Murni Besar x 50 harga jackpot yang anda beli
      (contoh:anda membeli 1000 maka:1000 X 50 = 50.000)
  3. BALAK x 200 harga jackpot yang anda beli
      (contoh:anda membeli 1000 maka:1000 X 200 = 200.000)
  4. ENAM DEWA x 6666 harga jackpot yang anda beli
      (contoh:anda membeli 1000 maka:1000 X 6666 = 6.666.000)

Demikian adalah penjelasan dari Multi Jackpot www.indowin99.com terima kasih dan selamat bermain salam hoki dari kami

Ceme Jackpot Winner

TOP ENAM DEWA
No.TanggalNamaPriceWin
126/02 02:35MF3383murni enam6,666,000
226/02 02:28B50D6D40murni enam3,333,000
326/02 02:19FAHMI279murni enam3,333,000
426/02 02:04BAKUYAYAPmurni enam666,600
526/02 02:04TOLANOHImurni enam6,666,000
TOP BALAK
No.TanggalNamaPriceWin
126/02 02:43KAPTEN0127balak200,000
226/02 02:43KIDALSHOOTbalak200,000
326/02 02:43GISHEL12balak20,000
426/02 02:43BALQIS_09balak200,000
526/02 02:43RAWUCENGbalak100,000
LATEST JACKPOT
No.TanggalNamaPriceWin
126/02 02:44DEWAAIIRmurni kecil5,000
226/02 02:44BOYE255murni besar50,000
326/02 02:44SIX889murni kecil5,000
426/02 02:44DAELI98murni kecil25,000
526/02 02:43YU2N33Nmurni kecil50,000
626/02 02:43JOYOJOYO99murni kecil50,000
726/02 02:43B9ENTEN9murni besar25,000
826/02 02:43IYEM9999murni besar50,000
926/02 02:43DABELYOUmurni kecil5,000
1026/02 02:43KAPTEN0127balak200,000
1126/02 02:43KIDALSHOOTbalak200,000
1226/02 02:43GISHEL12balak20,000
1326/02 02:43BALQIS_09balak200,000
1426/02 02:43RAWUCENGbalak100,000
1526/02 02:43SOHER01murni kecil50,000
1626/02 02:43LOGICALISTmurni kecil5,000
1726/02 02:42CEMOK2408murni kecil5,000
1826/02 02:42MRSHY88murni kecil50,000
1926/02 02:42KONCOEDANbalak20,000
2026/02 02:42AYHOE02balak100,000
2126/02 02:42RAD1T06murni kecil25,000
2226/02 02:42DOOR998murni kecil25,000
2326/02 02:42BAGOY86murni kecil5,000
2426/02 02:42CD43C120murni kecil25,000
2526/02 02:42FAISAL1112murni kecil25,000
2626/02 02:41AMONG17murni besar50,000
2726/02 02:41B16UNbalak200,000
2826/02 02:41FABAAmurni kecil50,000
2926/02 02:41GRAVE10murni kecil50,000
3026/02 02:41D6EB5084balak200,000
3126/02 02:41RAZZ12murni besar50,000
3226/02 02:41MR_POOLL88murni besar50,000
3326/02 02:41SYAHRUL127murni besar5,000
3426/02 02:41BALUZA24murni kecil50,000
3526/02 02:41CLASSMEmurni kecil25,000
3626/02 02:40KONCOEDANbalak20,000
3726/02 02:40R319EHU4NZmurni besar50,000
3826/02 02:40YETNO100murni kecil5,000
3926/02 02:40EEN___55murni besar25,000
4026/02 02:40EEN___55murni besar25,000
4126/02 02:40DRIVER23murni kecil25,000
4226/02 02:40AGUYKAH99murni kecil50,000
4326/02 02:39JAYENG99murni kecil50,000
4426/02 02:39PAKBONKmurni kecil25,000
4526/02 02:39BRIITIISHbalak200,000
4626/02 02:39YETRI20murni kecil50,000
4726/02 02:39NUJILOmurni kecil5,000
4826/02 02:39EBHENKAAmurni besar25,000
4926/02 02:39JAGOYOOOmurni besar5,000
5026/02 02:39SESEMARbalak20,000